Regional Weather Roundup
Issued by NWS Green Bay, WI

Home | Current Version | Previous Version | Text Only | Print | Product List | Glossary On
Versions: 1 2 3 4 5 6 7 8 9 10 11 12 13 14 15 16 17 18 19 20 21 22 23 24 25 26 27 28 29 30 31 32 33 34 35 36 37 38 39 40 41 42 43 44 45 46 47 48 49 50
000
ASUS43 KGRB 010011
RWRGRB

NORTH-CENTRAL AND NORTHEAST WISCONSIN REGIONAL WEATHER ROUNDUP
NATIONAL WEATHER SERVICE GREEN BAY WI
600 PM CST SUN FEB 28 2021

WIZ005-009-010>012-018-019-010100-
NORTH CENTRAL WISCONSIN

CITY           SKY/WX    TMP DP  RH WIND       PRES   REMARKS
IRONWOOD       CLOUDY    26  19  74 W13       29.78R
MANITOWISH WTR CLOUDY    26  19  77 W13G20    29.74R
ARBOR VITAE    CLOUDY    29  21  71 NW8       29.73R
EAGLE RIVER    CLOUDY    26  20  76 NW15G22   29.72R
LAND O LAKES   CLOUDY    26  21  80 NW12G17   29.72R
RHINELANDER    CLOUDY    27  20  75 NW12G22   29.73R
PHILLIPS       PTCLDY    26  21  80 W6        29.78R
ANTIGO         PTCLDY    29  23  79 NW23      29.72R
TOMAHAWK       CLOUDY    27  22  83 W8        29.77R
MERRILL        PTCLDY    30  23  75 NW9G20    29.75R
$$

WIZ013-073-010100-
NORTHEAST WISCONSIN

CITY           SKY/WX    TMP DP  RH WIND       PRES   REMARKS
IRON MOUNTAIN  CLOUDY    30  22  72 NW14G31   29.65R
MARINETTE      MOCLDY    34  27  75 NW8G21    29.67R
OCONTO         CLEAR     34  27  75 NW9G20    29.69R
$$

WIZ017-030-035>037-045-010100-
CENTRAL WISCONSIN

CITY           SKY/WX    TMP DP  RH WIND       PRES   REMARKS
MEDFORD        MOCLDY    28  23  82 NW14      29.78R
WAUSAU         CLEAR     31  23  72 W16G29    29.75R
MOSINEE        MOCLDY    30  27  86 W16G25    29.77R
MARSHFIELD     PTCLDY    31  23  72 NW18G29   29.80R
WISC RAPIDS    MOCLDY    33  26  75 NW14G29   29.81R
STEVENS POINT  CLOUDY    31  25  77 W9G17     29.79R
WAUPACA        CLOUDY    37  28  69 W14G24    29.76R
SHAWANO        CLOUDY    37  29  74 NW18G30   29.72R
CLINTONVILLE   CLOUDY    35  27  72 NW21G29   29.74R
WAUTOMA        CLOUDY    35  27  72 NW18G28   29.80R
$$

WIZ038-039-048-051-010100-
FOX VALLEY

CITY           SKY/WX    TMP DP  RH WIND       PRES   REMARKS
NWS GREEN BAY  CLEAR     36  28  73 W16       29.71R
APPLETON       MOCLDY    36  25  64 NW16G24   29.72R
OSHKOSH        PTCLDY    36  29  75 W17G24    29.75R
FOND DU LAC    CLEAR     37  30  75 NW17G25   29.75R
$$

WIZ022-050-052-010100-
EAST CENTRAL WISCONSIN

CITY           SKY/WX    TMP DP  RH WIND       PRES   REMARKS
EPHRAIM        CLOUDY    33  28  82 NW16G23   29.63R
WASHINGTON ISL CLOUDY    33  31  90 NW14G21   29.61R
STURGEON BAY   CLOUDY    35  27  72 NW18G25   29.67
MANITOWOC      CLOUDY    37  31  78 NW26      29.68R
SHEBOYGAN      PTCLDY    37  30  75 NW20G33   29.71R
$$

LMZ563-521-522-541>543-010100-
LAKESHORE

STATION/POSITION TIME  TEMP    WIND        PRES    VSBY  WAVE
                       AIR SEA DIR/SP/G                  HT/PER
                 (UTC) (F)     (DEG/KT/KT) (MB)    (MI)  (FT/S)
SHEBOYGAN LKSHOR 0000   38     290/ 25/ 32   N/A
KEWAUNEE LKSHORE 2330   39     290/ 19/ 26 1002.8R
NORTHPORT PIER   2340   35     280/ 16/ 20 1003.4R
SISTER BAY LKSHO 2359   34     310/ 21/ 24   N/A
CHAMBERS ISLAND  2340   35     260/ 11/ 21   N/A
MENOMINEE LKSHOR 2330   35 35  300/ 20/ 25 1003.3R
$$



USA.gov is the U.S. government's official web portal to all federal, state and local government web resources and services.